• In Italy
  • List of Countries
  • For 7 days
  • Water Temperature
  • Satellite Maps
  • Weather Map
  • Weather Widgets
  • user-avatar
    Login

    Hourly Weather Jaú

    Today, 19 September, Wednesday

    Time Temperature Precipitation Wind Pressure Humidity
    00:00 +35°C° 0 mm 2 mps 753 mmHg 71%
    01:00 +35°C° 0 mm 2 mps 753 mmHg 71%
    02:00 +34°C° 0 mm 1 mps 753 mmHg 72%
    03:00 +33°C° 0 mm 1 mps 753 mmHg 73%
    04:00 +33°C° 0 mm 1 mps 753 mmHg 72%
    05:00 +33°C° 0 mm 1 mps 753 mmHg 72%
    06:00 +33°C° 0 mm 1 mps 753 mmHg 71%
    07:00 +34°C° 0 mm 1 mps 754 mmHg 65%
    08:00 +35°C° 0 mm 1 mps 754 mmHg 60%
    09:00 +37°C° 0 mm 1 mps 754 mmHg 54%
    10:00 +39°C° 0 mm 1 mps 754 mmHg 50%
    11:00 +40°C° 0 mm 1 mps 754 mmHg 46%
    12:00 +41°C° 0 mm 1 mps 753 mmHg 41%
    13:00 +41°C° 0 mm 2 mps 753 mmHg 40%
    14:00 +42°C° 0 mm 3 mps 753 mmHg 38%
    15:00 +43°C° 0 mm 3 mps 752 mmHg 36%
    16:00 +42°C° 0 mm 3 mps 752 mmHg 40%
    17:00 +40°C° 0 mm 3 mps 752 mmHg 45%
    18:00 +40°C° 0 mm 4 mps 752 mmHg 49%
    19:00 +38°C° 0 mm 3 mps 752 mmHg 51%
    20:00 +38°C° 0 mm 3 mps 753 mmHg 54%
    21:00 +37°C° 0 mm 3 mps 753 mmHg 56%
    22:00 +37°C° 0 mm 2 mps 753 mmHg 57%
    23:00 +36°C° 0 mm 2 mps 753 mmHg 57%

    Tomorrow, 20 September, Thursday

    Time Temperature Precipitation Wind Pressure Humidity
    00:00 +35°C° 0 mm 1 mps 753 mmHg 58%
    01:00 +34°C° 0 mm 1 mps 753 mmHg 58%
    02:00 +32°C° 0 mm 0 mps 753 mmHg 59%
    03:00 +31°C° 0 mm 0 mps 752 mmHg 60%
    04:00 +31°C° 0 mm 0 mps 753 mmHg 59%
    05:00 +31°C° 0 mm 0 mps 753 mmHg 57%
    06:00 +31°C° 0 mm 0 mps 753 mmHg 56%
    07:00 +33°C° 0 mm 0 mps 754 mmHg 51%
    08:00 +35°C° 0 mm 0 mps 754 mmHg 46%
    09:00 +36°C° 0 mm 0 mps 754 mmHg 41%
    10:00 +40°C° 0 mm 1 mps 754 mmHg 38%
    11:00 +41°C° 0 mm 2 mps 754 mmHg 35%
    12:00 +42°C° 0 mm 2 mps 753 mmHg 33%
    13:00 +43°C° 0 mm 4 mps 753 mmHg 34%
    14:00 +43°C° 0 mm 5 mps 753 mmHg 35%
    15:00 +44°C° 0 mm 6 mps 752 mmHg 37%
    16:00 +41°C° 0 mm 5 mps 752 mmHg 42%
    17:00 +40°C° 0 mm 5 mps 752 mmHg 47%
    18:00 +38°C° 0 mm 4 mps 752 mmHg 52%
    19:00 +37°C° 0 mm 4 mps 753 mmHg 55%
    20:00 +37°C° 0 mm 3 mps 753 mmHg 57%
    21:00 +36°C° 0 mm 3 mps 753 mmHg 59%
    22:00 +36°C° 0 mm 2 mps 753 mmHg 60%
    23:00 +35°C° 0 mm 2 mps 753 mmHg 61%

    Day after tomorrow, 21 September, Friday

    Time Temperature Precipitation Wind Pressure Humidity
    00:00 +35°C° 0 mm 2 mps 753 mmHg 62%
    01:00 +33°C° 0 mm 1 mps 753 mmHg 62%
    02:00 +33°C° 0 mm 1 mps 753 mmHg 63%
    03:00 +32°C° 0 mm 1 mps 752 mmHg 64%
    04:00 +32°C° 0 mm 1 mps 753 mmHg 63%
    05:00 +32°C° 0 mm 1 mps 753 mmHg 62%
    06:00 +33°C° 0 mm 1 mps 754 mmHg 61%
    07:00 +34°C° 0 mm 1 mps 754 mmHg 56%
    08:00 +35°C° 0 mm 1 mps 755 mmHg 51%
    09:00 +37°C° 0 mm 1 mps 755 mmHg 46%
    10:00 +39°C° 0 mm 1 mps 755 mmHg 42%
    11:00 +40°C° 0 mm 2 mps 755 mmHg 39%
    12:00 +41°C° 0 mm 2 mps 754 mmHg 35%
    13:00 +42°C° 0 mm 3 mps 754 mmHg 34%
    14:00 +42°C° 0 mm 3 mps 754 mmHg 33%
    15:00 +42°C° 0 mm 4 mps 753 mmHg 32%
    16:00 +41°C° 0 mm 4 mps 753 mmHg 37%
    17:00 +40°C° 0 mm 4 mps 753 mmHg 41%
    18:00 +38°C° 0 mm 4 mps 754 mmHg 46%
    19:00 +38°C° 0 mm 4 mps 754 mmHg 49%
    20:00 +37°C° 0 mm 4 mps 754 mmHg 52%
    21:00 +37°C° 0 mm 3 mps 755 mmHg 55%
    22:00 +36°C° 0 mm 3 mps 755 mmHg 56%
    23:00 +36°C° 0 mm 3 mps 754 mmHg 57%

    22 September, Saturday

    Time Temperature Precipitation Wind Pressure Humidity
    00:00 +35°C° 0 mm 2 mps 754 mmHg 58%
    01:00 +35°C° 0 mm 2 mps 754 mmHg 58%
    02:00 +34°C° 0 mm 2 mps 754 mmHg 59%
    03:00 +33°C° 0 mm 1 mps 754 mmHg 60%
    04:00 +33°C° 0 mm 1 mps 754 mmHg 59%
    05:00 +33°C° 0 mm 1 mps 754 mmHg 58%
    06:00 +33°C° 0 mm 1 mps 755 mmHg 57%
    07:00 +34°C° 0 mm 1 mps 755 mmHg 53%
    08:00 +36°C° 0 mm 1 mps 756 mmHg 48%
    09:00 +37°C° 0 mm 1 mps 756 mmHg 44%
    10:00 +39°C° 0 mm 1 mps 756 mmHg 41%
    11:00 +40°C° 0 mm 1 mps 755 mmHg 37%
    12:00 +41°C° 0 mm 1 mps 755 mmHg 34%
    13:00 +41°C° 0 mm 2 mps 754 mmHg 32%
    14:00 +42°C° 0 mm 2 mps 754 mmHg 31%
    15:00 +43°C° 0 mm 3 mps 753 mmHg 29%
    16:00 +42°C° 0 mm 3 mps 753 mmHg 31%
    17:00 +40°C° 0 mm 3 mps 754 mmHg 33%
    18:00 +39°C° 0 mm 3 mps 754 mmHg 35%
    19:00 +39°C° 0 mm 3 mps 754 mmHg 39%
    20:00 +38°C° 0 mm 3 mps 754 mmHg 42%
    21:00 +37°C° 0 mm 4 mps 755 mmHg 46%
    22:00 +37°C° 0 mm 3 mps 755 mmHg 48%
    23:00 +36°C° 0 mm 2 mps 754 mmHg 51%

    23 September, Sunday

    Time Temperature Precipitation Wind Pressure Humidity
    00:00 +35°C° 0 mm 2 mps 754 mmHg 54%
    01:00 +35°C° 0 mm 2 mps 754 mmHg 55%
    02:00 +33°C° 0 mm 1 mps 754 mmHg 56%
    03:00 +33°C° 0 mm 1 mps 754 mmHg 57%
    04:00 +33°C° 0 mm 1 mps 754 mmHg 57%
    05:00 +33°C° 0 mm 1 mps 754 mmHg 57%
    06:00 +33°C° 0 mm 1 mps 755 mmHg 56%
    07:00 +34°C° 0 mm 1 mps 755 mmHg 51%
    08:00 +37°C° 0 mm 2 mps 756 mmHg 46%
    09:00 +39°C° 0 mm 2 mps 756 mmHg 40%
    10:00 +40°C° 0 mm 2 mps 755 mmHg 37%
    11:00 +40°C° 0 mm 2 mps 755 mmHg 34%
    12:00 +41°C° 0 mm 2 mps 755 mmHg 31%
    13:00 +42°C° 0 mm 2 mps 754 mmHg 29%
    14:00 +43°C° 0 mm 3 mps 754 mmHg 28%
    15:00 +43°C° 0 mm 3 mps 753 mmHg 26%
    16:00 +42°C° 0 mm 4 mps 754 mmHg 31%
    17:00 +40°C° 0 mm 4 mps 754 mmHg 35%
    18:00 +39°C° 0 mm 5 mps 754 mmHg 40%
    19:00 +38°C° 0 mm 4 mps 754 mmHg 43%
    20:00 +37°C° 0 mm 4 mps 754 mmHg 46%
    21:00 +36°C° 0 mm 3 mps 755 mmHg 50%
    22:00 +36°C° 0 mm 3 mps 754 mmHg 51%
    23:00 +35°C° 0 mm 2 mps 754 mmHg 52%

    24 September, Monday

    Time Temperature Precipitation Wind Pressure Humidity
    00:00 +35°C° 0 mm 2 mps 754 mmHg 53%
    01:00 +34°C° 0 mm 2 mps 754 mmHg 53%
    02:00 +33°C° 0 mm 1 mps 753 mmHg 53%
    03:00 +32°C° 0 mm 1 mps 753 mmHg 53%
    04:00 +33°C° 0 mm 1 mps 753 mmHg 52%
    05:00 +33°C° 0 mm 1 mps 754 mmHg 52%
    06:00 +33°C° 0 mm 1 mps 754 mmHg 51%
    07:00 +34°C° 0 mm 1 mps 754 mmHg 47%
    08:00 +36°C° 0 mm 1 mps 755 mmHg 42%
    09:00 +37°C° 0 mm 1 mps 755 mmHg 38%
    10:00 +39°C° 0 mm 1 mps 755 mmHg 35%
    11:00 +40°C° 0 mm 1 mps 754 mmHg 31%
    12:00 +41°C° 0 mm 1 mps 754 mmHg 28%
    13:00 +42°C° 0 mm 2 mps 754 mmHg 27%
    14:00 +43°C° 0 mm 3 mps 753 mmHg 26%
    15:00 +43°C° 0 mm 4 mps 753 mmHg 25%
    16:00 +42°C° 0 mm 4 mps 753 mmHg 30%
    17:00 +41°C° 0 mm 5 mps 753 mmHg 36%
    18:00 +39°C° 0 mm 5 mps 753 mmHg 42%
    19:00 +39°C° 0 mm 5 mps 753 mmHg 45%
    20:00 +37°C° 0 mm 4 mps 754 mmHg 48%
    21:00 +37°C° 0 mm 4 mps 754 mmHg 50%
    22:00 +36°C° 0 mm 4 mps 754 mmHg 50%
    23:00 +36°C° 0 mm 3 mps 753 mmHg 50%
    Show more